TAP1932 LPPT-LPPR

Flight info

Callsign TAP1932
Flight time 0h 31m
Altitude 20000
Route IXIDA DCT ABLEG
Aircraft A320/M-SDE3FGHIJ1RWXYZ/LB1

Departure

Time 2026-05-04 16:29
Airport Lisbon Humberto Delgado Airport (LPPT)

Arrival

Time 2026-05-04 17:01
Airport Francisco de Sá Carneiro Airport (LPPR)
Time Latitude Longitude Altitude Speed Heading
2026-05-04 16:12 38.76565 -9.13393 350 ft 0 kts 73°
2026-05-04 16:14 38.76565 -9.13394 345 ft 0 kts 73°
2026-05-04 16:21 38.76524 -9.13447 352 ft 2 kts 344°
2026-05-04 16:22 38.76519 -9.13445 345 ft 0 kts 344°
2026-05-04 16:24 38.76540 -9.13453 345 ft 8 kts 344°
2026-05-04 16:25 38.76647 -9.13532 345 ft 13 kts 264°
2026-05-04 16:26 38.76496 -9.14148 353 ft 17 kts 268°
2026-05-04 16:26 38.76539 -9.14305 337 ft 0 kts 292°
2026-05-04 16:27 38.76621 -9.14401 335 ft 10 kts 28°
2026-05-04 16:28 38.76633 -9.14394 336 ft 0 kts 23°
2026-05-04 16:28 38.76662 -9.14378 335 ft 20 kts 23°
2026-05-04 16:29 38.79864 -9.12607 1440 ft 163 kts 22°
2026-05-04 16:30 38.83405 -9.10308 2801 ft 227 kts 25°
2026-05-04 16:31 38.86416 -9.08292 4142 ft 252 kts
2026-05-04 16:31 38.91729 -9.06811 6730 ft 271 kts 10°
2026-05-04 16:32 38.97277 -9.04878 9338 ft 281 kts 10°
2026-05-04 16:33 39.01162 -9.03520 10577 ft 307 kts 10°
2026-05-04 16:33 39.05519 -9.02022 11541 ft 334 kts 11°
2026-05-04 16:34 39.10059 -9.00455 13019 ft 342 kts 11°
2026-05-04 16:34 39.12378 -8.99652 13756 ft 346 kts 10°
2026-05-04 16:35 39.19489 -8.97198 15671 ft 359 kts
2026-05-04 16:35 39.26857 -8.94656 17589 ft 371 kts
2026-05-04 16:36 39.29367 -8.93790 18203 ft 375 kts
2026-05-04 16:36 39.34456 -8.92030 19291 ft 382 kts
2026-05-04 16:37 39.39642 -8.90238 20037 ft 387 kts
2026-05-04 16:37 39.42217 -8.89338 20088 ft 380 kts
2026-05-04 16:37 39.47298 -8.87555 20104 ft 377 kts
2026-05-04 16:38 39.52363 -8.85787 20093 ft 377 kts
2026-05-04 16:39 39.59964 -8.83145 20101 ft 377 kts
2026-05-04 16:39 39.65029 -8.81382 20106 ft 377 kts
2026-05-04 16:40 39.70061 -8.79622 20132 ft 377 kts
2026-05-04 16:40 39.75165 -8.77835 20129 ft 377 kts
2026-05-04 16:41 39.80233 -8.76048 20130 ft 378 kts
2026-05-04 16:41 39.87835 -8.73360 20124 ft 377 kts
2026-05-04 16:42 39.95427 -8.70686 20134 ft 377 kts
2026-05-04 16:43 40.00492 -8.68883 20119 ft 377 kts
2026-05-04 16:43 40.05556 -8.67080 20103 ft 377 kts
2026-05-04 16:43 40.08087 -8.66180 20092 ft 377 kts
2026-05-04 16:44 40.18225 -8.62565 20103 ft 377 kts
2026-05-04 16:45 40.23228 -8.60769 19761 ft 364 kts
2026-05-04 16:46 40.30382 -8.58205 18948 ft 349 kts
2026-05-04 16:46 40.35037 -8.56546 18218 ft 342 kts
2026-05-04 16:47 40.39509 -8.54934 17748 ft 327 kts
2026-05-04 16:47 40.43855 -8.53371 17039 ft 322 kts
2026-05-04 16:48 40.50276 -8.51064 16023 ft 317 kts
2026-05-04 16:48 40.52391 -8.50303 15757 ft 313 kts
2026-05-04 16:49 40.56420 -8.48844 15479 ft 284 kts
2026-05-04 16:49 40.60127 -8.47498 14742 ft 274 kts
2026-05-04 16:50 40.63795 -8.46183 13876 ft 270 kts
2026-05-04 16:50 40.67397 -8.44879 12924 ft 267 kts 10°
2026-05-04 16:51 40.70366 -8.43934 12137 ft 259 kts
2026-05-04 16:51 40.72143 -8.43915 11671 ft 253 kts 349°
2026-05-04 16:51 40.75435 -8.45306 11079 ft 245 kts 328°
2026-05-04 16:52 40.78441 -8.47391 11097 ft 247 kts 328°
2026-05-04 16:52 40.79987 -8.48450 10662 ft 256 kts 329°
2026-05-04 16:53 40.83139 -8.50612 9831 ft 281 kts 328°
2026-05-04 16:53 40.88941 -8.54632 7364 ft 325 kts 329°
2026-05-04 16:54 40.90933 -8.56008 6880 ft 320 kts 330°
2026-05-04 16:55 40.98339 -8.61064 5244 ft 268 kts 336°
2026-05-04 16:55 41.01792 -8.62081 4537 ft 240 kts 346°
2026-05-04 16:56 41.04901 -8.62905 3920 ft 218 kts 345°
2026-05-04 16:56 41.09158 -8.64033 3038 ft 198 kts 346°
2026-05-04 16:57 41.10473 -8.64371 2803 ft 186 kts 345°
2026-05-04 16:57 41.12885 -8.64994 2310 ft 167 kts 343°
2026-05-04 16:58 41.15885 -8.65778 1730 ft 135 kts 343°
2026-05-04 16:58 41.16796 -8.66017 1548 ft 133 kts 345°
2026-05-04 16:59 41.18587 -8.66485 1207 ft 131 kts 345°
2026-05-04 17:00 41.22210 -8.67442 505 ft 132 kts 344°
2026-05-04 17:00 41.24636 -8.68081 204 ft 77 kts 348°
2026-05-04 17:01 41.25220 -8.68133 181 ft 28 kts 17°
2026-05-04 17:01 41.25141 -8.67983 195 ft 22 kts 169°
2026-05-04 17:02 41.24841 -8.67882 214 ft 18 kts 151°
2026-05-04 17:02 41.24635 -8.67794 213 ft 11 kts 169°
2026-05-04 17:03 41.24560 -8.67776 217 ft 16 kts 169°
2026-05-04 17:03 41.24411 -8.67739 225 ft 23 kts 169°
2026-05-04 17:03 41.24227 -8.67590 237 ft 10 kts 149°
2026-05-04 17:04 41.24124 -8.67555 238 ft 7 kts 169°
2026-05-04 17:04 41.24047 -8.67535 238 ft 4 kts 169°
2026-05-04 17:05 41.24027 -8.67530 238 ft 0 kts 169°
2026-05-04 17:09 41.24011 -8.67526 238 ft 6 kts 169°
2026-05-04 17:09 41.23957 -8.67512 238 ft 10 kts 169°
2026-05-04 17:10 41.23785 -8.67465 239 ft 12 kts 168°
2026-05-04 17:10 41.23611 -8.67329 242 ft 9 kts 175°
2026-05-04 17:11 41.23592 -8.67283 244 ft 4 kts 89°
2026-05-04 17:11 41.23593 -8.67262 245 ft 3 kts 88°
2026-05-04 17:11 41.23593 -8.67220 245 ft 0 kts 89°